Today, Sunday 16 June

Time Forecast Temperature Humidity Percipitation Wind
12:00 18.0°C 50% 9% 4.9 m/s WSW
15:00 19.0°C 43% 9% 4.9 m/s WSW
18:00 17.0°C 58% 4% 4.9 m/s SW
21:00 14.0°C 76% 1% 4.0 m/s SW

Tomorrow, Monday 17 June

Time Forecast Temperature Humidity Percipitation Wind
00:00 11.0°C 88% 0% 1.8 m/s SW
03:00 9.0°C 92% 0% 3.1 m/s SW
06:00 11.0°C 86% 0% 3.1 m/s SW
09:00 16.0°C 59% 1% 4.0 m/s WSW
12:00 20.0°C 43% 1% 4.0 m/s SW
15:00 20.0°C 44% 4% 4.0 m/s WSW
18:00 19.0°C 54% 1% 4.0 m/s WSW
21:00 14.0°C 77% 1% 3.1 m/s WSW

Tuesday, 18 June

Time Forecast Temperature Humidity Percipitation Wind
00:00 12.0°C 88% 0% 1.8 m/s W
03:00 11.0°C 92% 1% 1.8 m/s NNW
06:00 12.0°C 84% 1% 3.1 m/s N
09:00 16.0°C 71% 2% 3.1 m/s N
12:00 18.0°C 58% 5% 3.1 m/s N
15:00 19.0°C 53% 3% 3.1 m/s NNW
18:00 19.0°C 54% 4% 3.1 m/s N
21:00 14.0°C 70% 0% 3.1 m/s N

Wednesday, 19 June

Time Forecast Temperature Humidity Percipitation Wind
00:00 12.0°C 79% 0% 3.1 m/s N
03:00 10.0°C 89% 1% 3.1 m/s NNW
06:00 11.0°C 86% 4% 3.1 m/s N
09:00 15.0°C 70% 3% 4.0 m/s NNE
12:00 18.0°C 55% 3% 4.0 m/s NNE
15:00 20.0°C 49% 2% 3.1 m/s N
18:00 19.0°C 54% 2% 3.1 m/s N
21:00 14.0°C 74% 1% 3.1 m/s NNW

Thursday, 20 June

Time Forecast Temperature Humidity Percipitation Wind
00:00 12.0°C 83% 0% 3.1 m/s WNW
03:00 10.0°C 89% 0% 1.8 m/s NW
06:00 12.0°C 83% 1% 1.8 m/s NW
09:00 16.0°C 68% 1% 3.1 m/s NNE
12:00 19.0°C 56% 5% 3.1 m/s N
15:00 21.0°C 52% 5% 3.1 m/s NNE
18:00 20.0°C 57% 3% 3.1 m/s NNE
21:00 16.0°C 71% 3% 3.1 m/s NNE